Terminal Aerodrome Forecast
Issued by NWS Dodge City, KS

Home | Current Version | Previous Version | Text Only | Print | Product List | Glossary On
Versions: 1 2 3 4 5 6 7 8 9 10 11 12 13 14
000
FTUS43 KDDC 301731
TAFDDC
TAF
KDDC 301731Z 3018/3118 35014KT P6SM SKC
     FM310000 01008KT P6SM SKC
     FM311100 03010KT P6SM BKN012=

USA.gov is the U.S. government's official web portal to all federal, state and local government web resources and services.